CDT,Max TemperatureF,Mean TemperatureF,Min TemperatureF,Max Dew PointF,MeanDew PointF,Min DewpointF,Max Humidity, Mean Humidity, Min Humidity, Max Sea Level PressureIn, Mean Sea Level PressureIn, Min Sea Level PressureIn, Max VisibilityMiles, Mean VisibilityMiles, Min VisibilityMiles, Max Wind SpeedMPH, Mean Wind SpeedMPH, Max Gust SpeedMPH,PrecipitationIn, CloudCover, Events, WindDirDegrees
2011-10-1,78,61,43,49,44,40,100,64,28,30.22,30.17,30.10,10,10,10,17,7,23,0.00,0,,14
2011-10-2,75,58,40,45,42,38,93,60,27,30.29,30.22,30.19,10,10,10,14,5,20,0.00,0,,29
2011-10-3,79,59,38,50,42,36,100,61,22,30.31,30.24,30.19,10,10,2,2,2,3,0.00,0,,5
2011-10-4,82,61,40,55,44,39,100,64,28,30.32,30.24,30.19,10,6,0,9,2,12,0.00,0,Fog,52
2011-10-5,85,64,43,57,49,44,100,66,31,30.25,30.18,30.11,10,6,0,10,3,13,0.00,0,Fog,84
2011-10-6,86,69,52,61,55,50,93,62,31,30.20,30.15,30.11,10,10,10,16,6,21,0.00,0,,105
2011-10-7,87,70,52,60,58,52,100,70,40,30.25,30.19,30.15,10,10,4,16,7,25,0.00,0,,109
2011-10-8,87,74,61,61,58,53,73,57,40,30.23,30.17,30.12,10,10,10,18,10,28,0.00,0,,104
2011-10-9,84,75,65,62,59,56,73,58,43,30.16,30.10,30.02,10,10,10,17,10,22,0.00,0,,87
2011-10-10,86,73,59,64,62,59,97,72,47,30.08,30.01,29.95,10,10,9,14,6,18,0.00,0,,50
2011-10-11,79,68,56,63,61,55,100,79,58,29.98,29.92,29.86,10,8,0,9,5,12,T,2,Fog,48
2011-10-12,85,70,54,66,60,53,100,76,51,29.89,29.83,29.74,10,4,0,21,2,32,0.31,2,Fog-Rain-Thunderstorm,197
2011-10-13,81,66,50,63,58,50,100,68,36,29.91,29.81,29.76,10,6,0,16,5,23,0.01,0,Fog,296
2011-10-14,83,64,44,54,47,43,100,62,24,30.04,29.97,29.92,10,6,0,8,1,12,0.00,0,Fog,178
2011-10-15,84,65,45,59,51,45,100,66,32,30.14,30.07,30.04,10,5,0,0,0,0,0.00,0,Fog,67
2011-10-16,88,69,49,58,52,46,100,62,24,30.16,30.08,30.01,10,9,5,14,4,20,0.00,0,,193
2011-10-17,87,70,52,64,57,52,93,63,32,30.01,29.93,29.79,10,9,2,16,5,22,0.00,0,,179
2011-10-18,76,60,43,64,54,42,93,79,64,29.92,29.80,29.72,10,8,2,23,9,35,0.03,5,Rain,297
2011-10-19,63,48,32,42,36,27,100,64,27,30.06,29.92,29.85,10,8,0,21,8,31,0.00,1,Fog,309
2011-10-20,68,48,27,34,27,18,100,58,15,30.16,30.11,30.06,10,10,10,14,0,0,0.00,0,,297
2011-10-21,73,52,30,44,36,30,100,63,25,30.30,30.22,30.17,10,8,0,10,0,0,0.00,0,Fog,20
2011-10-22,73,57,40,53,44,39,96,64,31,30.23,30.16,30.08,10,10,10,9,3,13,T,3,Rain,130
2011-10-23,80,67,54,62,55,47,93,69,45,30.13,30.06,30.00,10,10,9,20,5,24,T,5,Rain,117
2011-10-24,77,61,44,55,51,45,100,67,33,30.27,30.18,30.12,10,5,0,9,3,13,0.00,2,Fog,4
2011-10-25,82,60,38,53,45,39,100,67,33,30.26,30.19,30.08,10,5,0,13,4,,0.00,0,Fog,182
2011-10-26,83,67,51,60,55,50,100,70,39,30.10,30.01,29.93,10,10,4,14,6,21,0.00,0,,172
2011-10-27,84,69,54,63,55,51,100,74,47,29.99,29.95,29.90,10,10,6,26,8,31,0.00,4,,38
2011-10-28,57,48,38,54,48,40,96,81,66,30.23,30.07,29.95,10,8,1,21,9,26,0.51,7,Rain,352
2011-10-29,66,48,29,44,34,28,100,63,26,30.30,30.23,30.17,10,6,0,17,4,23,0.00,0,Fog,344
2011-10-30,66,47,28,41,33,27,100,64,28,30.30,30.22,30.18,10,5,0,10,2,15,0.00,0,Fog,105
2011-10-31,74,53,32,45,35,31,100,64,27,30.27,30.22,30.18,10,5,0,14,3,17,0.00,0,Fog,338